Location: ???????
(60.4260°N, 46.9069°E)
Time: 05:12:13
(UTC+00:00)

Cosmos 2219 Rocket - Pass Details

Date: 30 March 2020
Orbit: 829 x 845 km, 71.0° (Epoch: 05 June)

Event Time Altitude Azimuth Distance (km) Brightness Sun altitude
Rises 01:26:51 0° 317° (NW) 3,394 5.1 -7.4°
Reaches altitude 10° 01:30:17 10° 296° (WNW) 2,452 4.2 -7.0°
Maximum altitude 01:33:24 15° 262° (W) 2,087 3.6 -6.7°
Drops below altitude 10° 01:36:32 10° 228° (SW) 2,439 4.0 -6.3°
Sets 01:39:56 0° 207° (SSW) 3,366 4.9 -5.9°
